AAL2878 KDFW-KSAN

Flight info

Callsign AAL2878
Flight time N/A
Altitude 36000
Route WSTEX2 CIKAN EWM J4 SSO GBN J2 HOGGZ LUCKI1
Aircraft A21N/M-SDE2E3FGHIRWXY/LB1

Departure

Time N/A
Airport Dallas Fort Worth International Airport (KDFW)

Arrival

Time 2026-04-26 18:46
Airport San Diego International Airport (KSAN)
Time Latitude Longitude Altitude Speed Heading
2026-04-26 17:31 32.26841 -109.25330 35739 ft 363 kts 271°
2026-04-26 17:31 32.27940 -109.31176 35746 ft 369 kts 277°
2026-04-26 17:32 32.29231 -109.37051 35739 ft 369 kts 277°
2026-04-26 17:32 32.30505 -109.42926 35745 ft 368 kts 277°
2026-04-26 17:33 32.31762 -109.48764 35762 ft 366 kts 276°
2026-04-26 17:34 32.33423 -109.56530 35755 ft 365 kts 276°
2026-04-26 17:34 32.34870 -109.63305 35753 ft 365 kts 276°
2026-04-26 17:35 32.36109 -109.69123 35769 ft 365 kts 276°
2026-04-26 17:35 32.37137 -109.73961 35797 ft 365 kts 276°
2026-04-26 17:36 32.38577 -109.80757 35796 ft 365 kts 276°
2026-04-26 17:36 32.39602 -109.85604 35789 ft 365 kts 276°
2026-04-26 17:37 32.40833 -109.91434 35785 ft 365 kts 276°
2026-04-26 17:37 32.42060 -109.97267 35801 ft 365 kts 276°
2026-04-26 17:38 32.43891 -110.05992 35793 ft 365 kts 276°
2026-04-26 17:38 32.45114 -110.11840 35815 ft 365 kts 276°
2026-04-26 17:39 32.46327 -110.17652 35846 ft 365 kts 276°
2026-04-26 17:39 32.47545 -110.23504 35818 ft 363 kts 276°
2026-04-26 17:40 32.48548 -110.28356 35847 ft 365 kts 276°
2026-04-26 17:40 32.49959 -110.35144 35838 ft 362 kts 276°
2026-04-26 17:41 32.51163 -110.40985 35892 ft 365 kts 276°
2026-04-26 17:41 32.52358 -110.46775 35847 ft 363 kts 276°
2026-04-26 17:42 32.53555 -110.52594 35848 ft 363 kts 276°
2026-04-26 17:42 32.54753 -110.58438 35845 ft 363 kts 276°
2026-04-26 17:43 32.55935 -110.64219 35857 ft 363 kts 276°
2026-04-26 17:43 32.57121 -110.70038 35856 ft 363 kts 276°
2026-04-26 17:44 32.58314 -110.75901 35868 ft 366 kts 276°
2026-04-26 17:44 32.59494 -110.81704 35883 ft 363 kts 276°
2026-04-26 17:45 32.60672 -110.87528 35884 ft 363 kts 276°
2026-04-26 17:45 32.61841 -110.93319 35889 ft 362 kts 276°
2026-04-26 17:46 32.63014 -110.99144 35893 ft 362 kts 276°
2026-04-26 17:46 32.64178 -111.04937 35913 ft 362 kts 276°
2026-04-26 17:47 32.65151 -111.09783 35968 ft 362 kts 275°
2026-04-26 17:47 32.66511 -111.16584 35954 ft 362 kts 275°
2026-04-26 17:48 32.67664 -111.22372 35953 ft 362 kts 275°
2026-04-26 17:48 32.68822 -111.28197 35957 ft 362 kts 275°
2026-04-26 17:49 32.69976 -111.34023 35953 ft 362 kts 275°
2026-04-26 17:49 32.71133 -111.39854 35947 ft 362 kts 275°
2026-04-26 17:50 32.72274 -111.45645 35939 ft 362 kts 275°
2026-04-26 17:50 32.73421 -111.51470 35929 ft 362 kts 275°
2026-04-26 17:51 32.74567 -111.57310 35921 ft 362 kts 275°
2026-04-26 17:51 32.75695 -111.63104 35929 ft 362 kts 275°
2026-04-26 17:52 32.76840 -111.68936 35933 ft 362 kts 275°
2026-04-26 17:52 32.77974 -111.74779 35939 ft 362 kts 275°
2026-04-26 17:53 32.79103 -111.80583 35956 ft 362 kts 275°
2026-04-26 17:54 32.80804 -111.89355 35942 ft 363 kts 275°
2026-04-26 17:54 32.81935 -111.95206 35941 ft 363 kts 275°
2026-04-26 17:55 32.83059 -112.01022 35927 ft 362 kts 275°
2026-04-26 17:55 32.84180 -112.06876 35921 ft 362 kts 275°
2026-04-26 17:56 32.85290 -112.12688 35916 ft 362 kts 275°
2026-04-26 17:57 32.87516 -112.24365 35910 ft 363 kts 275°
2026-04-26 17:57 32.88629 -112.30222 35906 ft 362 kts 275°
2026-04-26 17:58 32.90842 -112.41926 35951 ft 362 kts 275°
2026-04-26 17:59 32.92488 -112.50676 35946 ft 363 kts 275°
2026-04-26 17:59 32.93591 -112.56555 35954 ft 364 kts 275°
2026-04-26 18:00 32.94692 -112.62443 35956 ft 363 kts 275°
2026-04-26 18:00 32.95375 -112.68289 35961 ft 354 kts 264°
2026-04-26 18:01 32.94780 -112.74053 35959 ft 350 kts 257°
2026-04-26 18:01 32.93989 -112.79717 35959 ft 342 kts 257°
2026-04-26 18:02 32.93347 -112.84410 35959 ft 349 kts 257°
2026-04-26 18:02 32.92446 -112.91071 35942 ft 350 kts 257°
2026-04-26 18:03 32.91669 -112.96794 35931 ft 350 kts 257°
2026-04-26 18:03 32.90883 -113.02540 35925 ft 351 kts 257°
2026-04-26 18:04 32.90105 -113.08248 35913 ft 348 kts 257°
2026-04-26 18:05 32.88938 -113.16737 35910 ft 352 kts 257°
2026-04-26 18:05 32.88144 -113.22498 35905 ft 353 kts 257°
2026-04-26 18:06 32.87345 -113.28268 35906 ft 353 kts 257°
2026-04-26 18:06 32.86548 -113.33997 35904 ft 353 kts 257°
2026-04-26 18:07 32.85748 -113.39750 35911 ft 351 kts 257°
2026-04-26 18:07 32.84953 -113.45431 35910 ft 342 kts 257°
2026-04-26 18:08 32.84159 -113.51080 35917 ft 351 kts 257°
2026-04-26 18:08 32.83356 -113.56793 35915 ft 352 kts 257°
2026-04-26 18:09 32.82544 -113.62538 35915 ft 352 kts 257°
2026-04-26 18:09 32.81729 -113.68281 35915 ft 352 kts 257°
2026-04-26 18:10 32.80917 -113.73999 35917 ft 348 kts 257°
2026-04-26 18:10 32.80122 -113.79575 35933 ft 341 kts 257°
2026-04-26 18:11 32.79310 -113.85231 35924 ft 349 kts 257°
2026-04-26 18:11 32.78496 -113.90905 35924 ft 349 kts 257°
2026-04-26 18:12 32.77697 -113.96617 35924 ft 350 kts 259°
2026-04-26 18:12 32.77515 -114.02414 35932 ft 353 kts 264°
2026-04-26 18:13 32.77523 -114.08217 35924 ft 348 kts 266°
2026-04-26 18:13 32.77756 -114.13943 35936 ft 353 kts 266°
2026-04-26 18:14 32.77998 -114.19789 35946 ft 354 kts 266°
2026-04-26 18:14 32.78234 -114.25647 35943 ft 353 kts 266°
2026-04-26 18:15 32.78462 -114.31451 35997 ft 353 kts 266°
2026-04-26 18:15 32.78728 -114.37277 35944 ft 353 kts 269°
2026-04-26 18:16 32.79900 -114.43000 35956 ft 363 kts 279°
2026-04-26 18:16 32.82310 -114.51607 35953 ft 367 kts 279°
2026-04-26 18:17 32.83906 -114.57396 35953 ft 367 kts 279°
2026-04-26 18:17 32.85482 -114.63141 35947 ft 367 kts 278°
2026-04-26 18:18 32.87058 -114.68905 35947 ft 363 kts 278°
2026-04-26 18:18 32.87666 -114.71776 35944 ft 351 kts 272°
2026-04-26 18:18 32.87898 -114.74644 35948 ft 348 kts 265°
2026-04-26 18:19 32.87786 -114.80413 35951 ft 351 kts 263°
2026-04-26 18:19 32.87642 -114.86226 35942 ft 351 kts 263°
2026-04-26 18:20 32.87508 -114.92052 35936 ft 351 kts 263°
2026-04-26 18:20 32.87419 -114.95937 35934 ft 351 kts 263°
2026-04-26 18:21 32.87241 -115.03617 35932 ft 346 kts 263°
2026-04-26 18:21 32.87100 -115.09462 35960 ft 356 kts 263°
2026-04-26 18:22 32.87030 -115.12401 35750 ft 350 kts 263°
2026-04-26 18:22 32.86962 -115.15248 35134 ft 348 kts 263°
2026-04-26 18:22 32.86892 -115.18125 34412 ft 347 kts 263°
2026-04-26 18:22 32.86819 -115.21004 33649 ft 347 kts 263°
2026-04-26 18:23 32.86746 -115.23873 32871 ft 347 kts 263°
2026-04-26 18:23 32.86674 -115.26757 32128 ft 348 kts 263°
2026-04-26 18:23 32.86601 -115.29644 31391 ft 349 kts 263°
2026-04-26 18:23 32.86525 -115.32533 30661 ft 349 kts 263°
2026-04-26 18:24 32.86416 -115.34433 30162 ft 348 kts 260°
2026-04-26 18:24 32.85936 -115.38208 28974 ft 350 kts 257°
2026-04-26 18:24 32.85662 -115.40140 28381 ft 351 kts 257°
2026-04-26 18:24 32.85252 -115.43014 27543 ft 352 kts 258°
2026-04-26 18:25 32.84848 -115.45862 26717 ft 352 kts 258°
2026-04-26 18:25 32.84431 -115.48762 25927 ft 357 kts 257°
2026-04-26 18:25 32.83953 -115.51724 25515 ft 377 kts 257°
2026-04-26 18:25 32.83448 -115.54825 25234 ft 383 kts 257°
2026-04-26 18:26 32.82953 -115.57883 24930 ft 376 kts 257°
2026-04-26 18:26 32.82468 -115.60877 24575 ft 364 kts 257°
2026-04-26 18:26 32.81989 -115.63798 24213 ft 358 kts 257°
2026-04-26 18:26 32.81510 -115.66712 23811 ft 360 kts 257°
2026-04-26 18:27 32.81024 -115.69651 23359 ft 361 kts 257°
2026-04-26 18:27 32.80534 -115.72579 22869 ft 360 kts 257°
2026-04-26 18:27 32.80058 -115.75453 22398 ft 358 kts 257°
2026-04-26 18:27 32.79582 -115.78357 21915 ft 356 kts 257°
2026-04-26 18:28 32.79106 -115.81244 21440 ft 355 kts 257°
2026-04-26 18:28 32.78640 -115.84116 20979 ft 353 kts 258°
2026-04-26 18:28 32.78340 -115.87013 20519 ft 352 kts 262°
2026-04-26 18:28 32.78125 -115.89926 20052 ft 351 kts 263°
2026-04-26 18:29 32.77920 -115.92781 19595 ft 350 kts 263°
2026-04-26 18:29 32.77708 -115.95655 19109 ft 349 kts 263°
2026-04-26 18:29 32.77494 -115.98529 18644 ft 348 kts 263°
2026-04-26 18:29 32.77280 -116.01391 18161 ft 347 kts 263°
2026-04-26 18:30 32.77066 -116.04238 17635 ft 345 kts 263°
2026-04-26 18:30 32.76852 -116.07071 17137 ft 343 kts 264°
2026-04-26 18:30 32.76638 -116.09892 16656 ft 342 kts 264°
2026-04-26 18:30 32.76427 -116.12664 16191 ft 340 kts 264°
2026-04-26 18:31 32.76213 -116.15459 15735 ft 339 kts 264°
2026-04-26 18:31 32.75996 -116.18246 15244 ft 337 kts 264°
2026-04-26 18:31 32.75778 -116.21027 14761 ft 337 kts 264°
2026-04-26 18:31 32.75557 -116.23793 14265 ft 337 kts 264°
2026-04-26 18:32 32.75525 -116.24202 14192 ft 337 kts 264°
2026-04-26 18:32 32.75319 -116.26877 13722 ft 335 kts 264°
2026-04-26 18:32 32.75112 -116.29594 13371 ft 322 kts 265°
2026-04-26 18:32 32.74916 -116.32191 13146 ft 308 kts 265°
2026-04-26 18:33 32.74728 -116.34668 12940 ft 294 kts 265°
2026-04-26 18:33 32.74545 -116.37016 12517 ft 284 kts 265°
2026-04-26 18:33 32.74357 -116.39362 12009 ft 278 kts 266°
2026-04-26 18:33 32.74177 -116.41572 11728 ft 266 kts 266°
2026-04-26 18:34 32.74006 -116.43720 11541 ft 256 kts 266°
2026-04-26 18:34 32.73841 -116.45827 11040 ft 257 kts 266°
2026-04-26 18:34 32.73671 -116.47956 10600 ft 258 kts 267°
2026-04-26 18:34 32.73505 -116.50054 10324 ft 251 kts 267°
2026-04-26 18:35 32.73321 -116.52092 10014 ft 246 kts 266°
2026-04-26 18:35 32.73127 -116.54106 9640 ft 244 kts 267°
2026-04-26 18:35 32.72936 -116.56100 9259 ft 243 kts 266°
2026-04-26 18:35 32.72747 -116.58100 8904 ft 243 kts 266°
2026-04-26 18:36 32.72554 -116.60104 8592 ft 245 kts 265°
2026-04-26 18:36 32.72354 -116.62093 8278 ft 246 kts 265°
2026-04-26 18:36 32.72156 -116.64140 8005 ft 256 kts 265°
2026-04-26 18:36 32.71954 -116.66253 7933 ft 255 kts 265°
2026-04-26 18:37 32.71785 -116.68351 7406 ft 257 kts 266°
2026-04-26 18:37 32.71622 -116.70472 7034 ft 256 kts 266°
2026-04-26 18:37 32.71462 -116.72502 6865 ft 244 kts 265°
2026-04-26 18:37 32.71306 -116.74464 6778 ft 232 kts 265°
2026-04-26 18:38 32.71156 -116.76331 6669 ft 221 kts 265°
2026-04-26 18:38 32.71017 -116.78113 6551 ft 212 kts 265°
2026-04-26 18:38 32.70881 -116.79844 6315 ft 209 kts 265°
2026-04-26 18:38 32.70732 -116.81531 6040 ft 206 kts 262°
2026-04-26 18:39 32.70346 -116.83172 5786 ft 208 kts 251°
2026-04-26 18:39 32.69831 -116.84773 5543 ft 206 kts 250°
2026-04-26 18:39 32.69319 -116.86365 5288 ft 206 kts 251°
2026-04-26 18:39 32.68812 -116.87979 5059 ft 209 kts 251°
2026-04-26 18:40 32.68329 -116.89595 4795 ft 211 kts 252°
2026-04-26 18:40 32.67849 -116.91245 4502 ft 211 kts 252°
2026-04-26 18:40 32.67387 -116.92901 4210 ft 210 kts 257°
2026-04-26 18:40 32.67351 -116.94614 3894 ft 209 kts 282°
2026-04-26 18:41 32.67741 -116.96264 3664 ft 205 kts 287°
2026-04-26 18:41 32.68152 -116.97850 3515 ft 196 kts 287°
2026-04-26 18:41 32.68538 -116.99358 3336 ft 185 kts 287°
2026-04-26 18:41 32.68895 -117.00751 3165 ft 173 kts 284°
2026-04-26 18:42 32.69240 -117.02111 2935 ft 170 kts 283°
2026-04-26 18:42 32.69573 -117.03462 2828 ft 171 kts 284°
2026-04-26 18:42 32.69903 -117.04809 2741 ft 170 kts 285°
2026-04-26 18:42 32.70237 -117.06174 2602 ft 173 kts 285°
2026-04-26 18:43 32.70565 -117.07551 2335 ft 173 kts 284°
2026-04-26 18:43 32.70892 -117.08921 2029 ft 169 kts 283°
2026-04-26 18:43 32.71195 -117.10133 1804 ft 140 kts 284°
2026-04-26 18:43 32.71433 -117.11137 1380 ft 117 kts 286°
2026-04-26 18:44 32.71657 -117.12078 1178 ft 119 kts 288°
2026-04-26 18:44 32.71890 -117.13027 1020 ft 117 kts 288°
2026-04-26 18:44 32.72115 -117.13956 850 ft 117 kts 289°
2026-04-26 18:44 32.72341 -117.14893 659 ft 120 kts 290°
2026-04-26 18:45 32.72578 -117.15837 453 ft 123 kts 290°
2026-04-26 18:45 32.72826 -117.16787 324 ft 118 kts 287°
2026-04-26 18:45 32.73047 -117.17737 111 ft 118 kts 287°
2026-04-26 18:45 32.73286 -117.18669 46 ft 115 kts 288°
2026-04-26 18:46 32.73461 -117.19390 28 ft 47 kts 286°
2026-04-26 18:46 32.73536 -117.19703 32 ft 31 kts 275°
2026-04-26 18:46 32.73496 -117.19881 30 ft 13 kts 253°
2026-04-26 18:46 32.73497 -117.19972 28 ft 0 kts 285°
2026-04-26 18:47 32.73498 -117.19975 28 ft 2 kts 287°
2026-04-26 18:47 32.73505 -117.20002 28 ft 5 kts 287°
2026-04-26 18:48 32.73517 -117.20051 28 ft 8 kts 287°
2026-04-26 18:48 32.73536 -117.20123 28 ft 11 kts 287°
2026-04-26 18:48 32.73545 -117.20204 28 ft 10 kts 251°
2026-04-26 18:48 32.73483 -117.20248 27 ft 12 kts 196°
2026-04-26 18:49 32.73397 -117.20275 26 ft 13 kts 189°
2026-04-26 18:49 32.73333 -117.20263 27 ft 8 kts 165°
2026-04-26 18:49 32.73274 -117.20225 26 ft 11 kts 128°
2026-04-26 18:49 32.73255 -117.20176 26 ft 6 kts 110°
2026-04-26 18:50 32.73250 -117.20159 26 ft 0 kts 114°